Wind_Speed
8 8 8 9 8 7 5 5 5 4 4 2 1 2 3 4 5 6 6 6 6 5 4 5 5 5 4 4 4 4 4 5 5 5 5 5 5 5 5 5 5 5 5 5
10 10 10 10 10 8 7 6 6 6 5 3 3 4 5 5 6 6 6 6 6 5 4 4 5 4 4 4 5 5 5 5 4 5 5 5 5 5 5 5 5 5 5 5
11 12 11 10 10 9 8 8 7 7 6 5 4 5 6 6 6 6 6 6 7 6 5 5 5 5 5 5 5 5 5 5 5 5 5 6 5 5 5 5 5 5 6 6
12 12 12 11 11 9 9 9 7 7 5 5 5 5 7 7 7 6 6 7 7 7 6 6 5 5 5 5 5 6 6 5 6 6 6 6 6 7 7 7 7 7 7 7
14 14 13 13 12 10 10 9 8 7 6 5 6 5 7 7 7 7 7 7 7 7 7 6 6 6 6 5 6 7 7 7 7 7 8 8 8 8 8 8 8 8 8 9
14 15 14 13 13 12 10 9 8 7 6 7 7 6 6 7 6 6 7 7 7 8 8 7 6 7 7 7 7 8 8 8 8 8 9 9 10 10 10 10 10 10 10 9
15 15 15 15 14 13 11 9 8 8 8 9 9 8 8 8 7 7 7 7 7 8 8 8 8 8 8 8 9 10 10 10 9 9 10 11 11 11 11 11 11 11 11 11
16 16 16 15 15 14 13 11 10 10 10 10 10 9 9 8 9 9 8 7 8 8 8 9 9 9 9 10 10 11 11 11 11 11 12 12 12 12 12 12 12 12 12 13
18 17 17 16 16 15 14 13 12 12 11 10 10 10 9 9 9 10 9 9 9 10 9 10 10 10 11 11 11 12 12 13 12 12 13 13 13 13 13 12 12 13 13 13
20 20 19 18 17 17 15 14 13 12 12 11 10 10 11 10 10 10 10 10 10 11 11 11 11 12 12 12 13 13 13 14 14 14 14 14 14 13 13 13 13 14 15 15
20 21 20 20 19 18 17 15 15 14 13 11 10 11 12 11 11 10 11 11 11 12 12 12 13 13 13 13 13 14 14 15 15 15 15 15 15 15 14 14 15 15 15 15
21 21 21 21 21 21 19 18 16 14 14 14 12 13 13 13 12 12 12 12 12 13 13 13 13 14 14 14 14 14 15 16 16 16 16 16 16 16 16 15 16 16 16 16
21 21 20 20 21 21 20 19 18 16 16 15 14 14 16 15 14 14 14 14 14 14 14 14 14 14 15 15 15 16 16 17 17 17 17 18 17 17 17 17 16 16 17 17
22 21 21 20 19 20 20 20 19 18 17 17 17 16 17 17 16 16 16 16 16 16 15 15 16 16 16 16 17 17 18 18 18 18 18 19 19 19 18 18 18 18 19 19
22 22 22 22 22 22 21 21 21 20 20 19 20 20 19 19 19 18 17 18 18 18 17 18 18 17 17 18 18 19 20 20 21 20 20 21 21 20 20 20 19 19 20 21
24 23 23 23 23 23 23 23 22 22 21 21 20 20 20 19 19 19 19 19 19 19 20 20 20 19 19 20 21 21 21 21 22 22 23 22 22 22 22 22 22 22 23 23
26 24 24 23 24 24 24 24 23 22 22 21 21 20 20 19 19 19 20 20 20 20 21 21 20 20 21 21 22 22 22 22 23 23 24 24 24 24 23 24 24 24 25 25
26 26 25 24 25 26 24 24 24 23 23 23 22 22 21 20 20 21 21 21 21 21 21 21 21 22 22 23 23 24 24 24 24 24 25 25 25 26 26 26 26 25 26 26
27 27 27 26 25 25 26 25 24 25 25 25 24 23 22 22 22 23 23 23 23 23 23 22 23 24 24 24 24 25 26 26 26 26 26 26 27 27 27 27 27 28 27 27
28 27 27 28 26 25 26 25 24 25 26 25 25 24 23 23 24 24 24 25 24 24 24 25 25 25 26 26 26 26 27 27 27 27 28 28 28 28 27 27 28 28 28 28
28 28 28 28 28 27 28 28 26 26 26 26 25 25 25 26 26 25 25 26 26 26 26 26 26 26 27 27 28 28 28 28 29 29 29 28 28 28 27 27 28 28 28 29
28 29 29 28 29 29 30 29 28 27 27 27 27 27 27 28 28 27 27 27 27 27 27 27 27 27 27 28 28 28 28 29 30 30 30 29 29 29 29 28 28 28 29 30
28 28 29 29 30 31 30 29 28 28 28 27 28 28 28 28 28 28 28 28 28 29 29 29 28 28 29 29 28 28 28 29 29 29 29 29 29 30 30 30 29 29 29 30
29 28 29 29 29 30 30 30 29 29 28 28 28 29 29 29 29 29 29 29 29 30 31 31 30 30 30 30 30 31 30 30 29 29 30 30 31 30 30 30 29 28 29 29
28 28 28 29 29 29 30 30 29 29 29 28 28 29 29 29 29 29 30 30 31 31 32 33 32 32 31 31 31 31 30 30 30 30 30 30 30 30 30 29 28 28 28 28
27 27 28 28 29 29 29 29 28 28 27 28 28 29 29 29 29 30 30 31 31 31 31 32 32 32 32 31 30 30 30 30 30 29 29 29 30 29 29 29 29 28 29 29
Wind_Direction
216 214 216 223 226 229 242 252 259 268 273 261 284 329 325 322 344 353 351 349 349 349 346 351 358 3 3 357 350 346 347 347 346 351 354 354 350 355 3 9 6 354 348 352
221 227 231 232 233 235 246 254 260 261 265 264 280 302 305 310 324 337 345 342 337 332 330 330 335 339 338 336 336 334 332 334 331 333 341 339 337 340 349 353 351 345 340 331
223 230 233 235 235 240 252 256 257 261 261 269 281 297 304 311 315 319 328 336 333 326 318 320 328 329 323 320 322 327 321 320 321 320 321 327 326 325 326 327 326 327 326 320
228 234 236 236 239 241 255 257 260 262 262 272 271 281 295 304 308 312 314 321 328 328 318 318 323 325 320 315 317 324 323 318 313 311 311 316 319 317 316 313 311 311 313 313
232 234 235 237 244 246 252 253 258 260 262 269 278 275 289 298 302 309 314 315 325 324 322 315 314 317 314 307 311 318 317 315 313 309 307 310 311 309 308 307 304 303 304 306
230 232 233 237 242 247 253 259 259 263 267 270 278 281 282 289 294 303 309 309 317 320 319 315 311 311 307 305 310 311 309 308 309 306 305 307 309 309 306 303 300 300 301 304
232 235 236 237 241 249 254 253 258 268 268 268 274 277 274 278 283 292 301 304 309 312 312 310 309 305 301 303 306 306 306 304 304 304 302 303 304 304 303 300 298 297 297 297
233 236 238 239 240 246 249 241 242 254 263 275 276 277 281 277 279 286 290 294 299 307 309 308 310 307 301 300 302 303 303 303 304 305 301 299 300 301 300 297 296 294 294 295
230 235 237 237 239 240 247 245 244 252 260 266 272 279 282 281 281 285 285 285 294 298 299 302 306 307 303 301 301 301 301 301 302 303 301 300 298 300 300 298 296 296 294 294
232 234 237 236 238 241 245 247 248 246 252 260 272 280 278 282 287 286 285 286 292 297 296 297 298 304 305 303 303 301 300 299 297 298 299 297 296 298 300 298 296 294 293 292
231 232 236 236 237 243 248 249 250 250 250 254 265 271 275 278 280 281 282 287 293 294 297 295 297 299 301 303 302 302 300 297 294 294 295 296 297 297 297 295 295 294 293 291
232 233 234 237 239 241 245 247 248 253 258 257 259 267 275 277 277 277 278 283 289 291 295 296 296 299 299 300 301 301 300 297 294 293 293 294 295 298 297 295 293 292 291 291
231 233 235 239 243 244 245 247 250 254 259 261 262 269 273 274 275 274 276 280 284 288 290 292 294 298 301 300 299 298 298 297 295 294 293 293 293 294 293 294 293 292 292 293
233 235 234 235 239 243 247 249 251 254 256 260 261 263 268 270 271 270 273 276 279 284 286 289 290 292 296 298 298 298 299 298 296 294 292 293 294 293 293 293 292 292 292 294
235 238 238 238 238 242 246 250 254 255 256 258 262 264 265 267 267 267 269 272 275 280 284 287 289 288 291 294 297 296 296 295 294 292 290 291 292 293 294 292 290 290 292 293
237 239 241 243 244 246 247 250 253 255 257 260 263 264 263 264 265 265 266 268 272 278 282 285 286 286 289 290 292 294 294 294 293 291 289 290 291 291 292 291 290 290 290 292
240 240 243 247 248 248 248 250 251 255 257 259 263 264 265 265 265 264 265 266 271 276 280 282 283 285 288 290 290 290 290 291 291 290 288 289 288 290 291 290 289 289 290 291
238 240 245 246 247 248 249 251 252 255 257 258 260 262 264 265 265 264 265 268 270 274 276 279 282 284 286 287 287 287 288 288 289 290 289 288 286 287 289 290 289 289 290 291
243 243 245 246 248 251 252 252 254 257 258 258 259 262 264 265 265 265 266 268 269 271 273 277 280 283 284 286 287 288 290 290 290 290 291 289 288 288 288 288 288 289 290 291
245 246 246 245 245 248 254 255 256 259 260 258 260 262 263 264 265 266 268 268 269 271 273 276 278 280 283 285 286 287 288 290 292 293 290 290 289 288 288 287 288 289 290 291
246 247 247 248 248 251 253 255 258 260 261 262 262 263 263 263 266 267 268 269 270 272 274 275 277 278 281 282 284 286 288 288 290 291 291 291 291 289 287 288 289 289 290 291
247 249 249 249 251 252 255 257 258 259 260 261 261 263 264 264 265 267 269 269 271 272 273 275 276 278 280 282 283 285 286 287 288 289 290 289 288 289 288 288 289 289 289 290
246 248 249 250 253 255 257 259 259 259 261 262 262 262 265 266 267 268 269 270 270 271 273 274 275 278 280 281 282 284 285 287 288 289 288 287 287 288 288 288 291 290 290 290
247 249 251 253 255 257 258 259 260 260 261 261 262 262 265 267 267 268 269 271 271 272 274 275 275 277 278 279 281 282 283 284 286 287 287 288 286 287 290 290 290 292 291 291
248 249 251 253 255 257 259 261 261 261 262 263 264 264 265 267 268 268 270 270 271 272 274 275 277 277 277 278 280 281 281 282 284 286 286 286 285 285 287 289 290 291 292 294
247 249 250 252 254 256 258 260 262 262 262 263 265 267 268 269 269 270 271 272 274 274 276 277 278 277 276 276 278 280 281 282 284 285 285 286 287 287 288 289 290 291 292 293
Height
5907 5910 5911 5912 5912 5913 5914 5914 5914 5913 5912 5912 5911 5911 5910 5908 5907 5906 5905 5904 5902 5901 5900 5899 5897 5896 5895 5894 5893 5892 5891 5890 5889 5887 5886 5885 5884 5883 5881 5880 5879 5878 5877 5876
5907 5908 5909 5910 5911 5912 5912 5913 5913 5912 5911 5911 5911 5910 5910 5909 5907 5906 5905 5904 5902 5901 5900 5899 5898 5896 5895 5894 5893 5892 5891 5890 5889 5887 5886 5885 5884 5883 5881 5880 5879 5878 5877 5876
5904 5906 5906 5908 5909 5910 5911 5911 5911 5911 5910 5910 5910 5910 5909 5908 5907 5906 5905 5903 5902 5901 5900 5898 5897 5896 5895 5894 5893 5892 5890 5889 5888 5887 5886 5884 5883 5882 5881 5880 5879 5878 5876 5875
5901 5903 5904 5905 5906 5908 5909 5909 5909 5909 5909 5910 5910 5911 5908 5907 5906 5905 5904 5903 5901 5900 5899 5898 5897 5895 5894 5893 5892 5891 5890 5888 5887 5886 5885 5884 5882 5881 5880 5879 5878 5877 5876 5874
5899 5900 5901 5903 5904 5905 5906 5907 5907 5907 5908 5909 5908 5909 5909 5906 5905 5904 5903 5902 5901 5899 5898 5897 5896 5895 5893 5892 5891 5890 5889 5888 5886 5885 5884 5883 5881 5880 5879 5878 5876 5875 5874 5873
5896 5897 5899 5900 5902 5903 5904 5905 5906 5906 5907 5908 5907 5907 5907 5905 5904 5903 5902 5901 5900 5898 5897 5896 5895 5894 5892 5891 5890 5889 5888 5886 5885 5884 5883 5881 5880 5879 5877 5876 5875 5873 5872 5871
5893 5894 5895 5897 5899 5900 5902 5904 5906 5907 5907 5907 5905 5905 5905 5903 5902 5901 5901 5900 5898 5897 5896 5895 5894 5893 5891 5890 5889 5887 5886 5884 5883 5882 5881 5880 5878 5877 5875 5874 5872 5871 5870 5869
5890 5892 5893 5894 5896 5897 5899 5901 5904 5906 5906 5905 5903 5902 5903 5901 5900 5899 5899 5898 5897 5896 5895 5894 5892 5891 5890 5888 5887 5886 5884 5883 5881 5880 5878 5877 5876 5874 5872 5871 5870 5868 5867 5866
5887 5889 5889 5891 5892 5894 5895 5897 5900 5902 5902 5903 5902 5900 5899 5898 5897 5897 5896 5895 5895 5894 5893 5892 5890 5889 5888 5886 5885 5883 5882 5881 5879 5877 5876 5874 5873 5871 5869 5868 5867 5866 5864 5863
5882 5884 5885 5887 5889 5890 5892 5894 5896 5898 5898 5900 5900 5899 5898 5896 5895 5894 5893 5893 5892 5891 5890 5889 5888 5887 5885 5884 5882 5881 5879 5878 5876 5875 5873 5872 5870 5868 5866 5865 5863 5862 5861 5860
5877 5880 5882 5883 5885 5887 5888 5890 5891 5893 5895 5896 5898 5899 5894 5893 5892 5892 5891 5890 5889 5889 5888 5887 5885 5884 5883 5881 5880 5878 5877 5875 5873 5871 5870 5868 5866 5865 5863 5862 5860 5859 5857 5856
5872 5875 5878 5879 5880 5882 5884 5886 5888 5890 5890 5891 5893 5896 5890 5889 5888 5888 5888 5887 5886 5886 5885 5884 5883 5881 5880 5878 5877 5875 5873 5872 5870 5868 5867 5865 5863 5861 5860 5858 5856 5855 5853 5852
5867 5870 5873 5875 5878 5878 5879 5881 5883 5885 5886 5887 5888 5891 5886 5885 5885 5884 5884 5883 5883 5882 5882 5881 5879 5878 5876 5875 5873 5872 5870 5868 5867 5865 5863 5861 5859 5857 5856 5854 5852 5850 5849 5847
5862 5865 5869 5872 5873 5873 5874 5876 5877 5880 5881 5882 5883 5883 5881 5880 5880 5880 5880 5879 5879 5879 5878 5877 5876 5874 5873 5871 5870 5868 5866 5864 5863 5861 5859 5857 5855 5853 5851 5850 5848 5846 5844 5842
5856 5859 5862 5864 5865 5867 5869 5870 5871 5873 5874 5876 5876 5876 5876 5875 5875 5875 5875 5875 5875 5874 5874 5873 5871 5870 5869 5867 5865 5863 5862 5860 5858 5856 5854 5853 5851 5849 5847 5845 5843 5841 5839 5837
5850 5853 5856 5858 5860 5861 5863 5864 5866 5867 5868 5869 5869 5870 5869 5870 5870 5870 5870 5870 5870 5869 5869 5868 5866 5865 5864 5862 5861 5859 5857 5855 5853 5851 5849 5848 5846 5844 5842 5840 5838 5836 5833 5831
5844 5847 5850 5853 5854 5855 5857 5858 5859 5861 5862 5863 5864 5864 5863 5864 5864 5864 5864 5865 5864 5864 5863 5862 5861 5860 5859 5857 5855 5853 5851 5849 5847 5845 5844 5842 5840 5838 5836 5834 5831 5829 5827 5825
5838 5841 5844 5846 5848 5849 5853 5852 5853 5854 5855 5856 5856 5857 5857 5858 5858 5858 5859 5859 5859 5858 5857 5856 5855 5854 5852 5851 5849 5847 5845 5843 5841 5839 5837 5835 5833 5831 5829 5827 5825 5822 5820 5818
5832 5835 5837 5839 5841 5843 5844 5845 5846 5847 5848 5849 5850 5850 5851 5851 5852 5852 5852 5852 5852 5852 5851 5850 5849 5848 5846 5844 5842 5841 5839 5836 5834 5832 5830 5828 5826 5824 5822 5819 5817 5815 5813 5810
5825 5827 5830 5832 5834 5836 5838 5838 5839 5841 5840 5842 5842 5843 5844 5845 5845 5845 5845 5845 5845 5844 5844 5843 5842 5841 5839 5837 5835 5834 5832 5829 5827 5825 5823 5820 5818 5816 5814 5812 5809 5807 5804 5802
5818 5820 5822 5824 5826 5828 5829 5829 5832 5834 5834 5834 5835 5836 5836 5837 5838 5838 5838 5837 5837 5837 5836 5836 5834 5833 5832 5830 5828 5826 5824 5822 5820 5817 5815 5812 5810 5808 5806 5804 5802 5799 5797 5794
5810 5812 5814 5816 5818 5822 5820 5822 5824 5825 5825 5826 5827 5828 5828 5828 5829 5829 5829 5829 5829 5829 5828 5827 5826 5825 5824 5822 5820 5818 5816 5814 5812 5809 5807 5804 5802 5800 5798 5796 5793 5791 5789 5786
5802 5805 5806 5808 5811 5811 5812 5813 5815 5816 5817 5817 5819 5820 5820 5820 5820 5821 5821 5821 5821 5820 5820 5819 5818 5817 5815 5813 5812 5810 5808 5806 5804 5801 5799 5796 5794 5792 5789 5787 5785 5783 5780 5777
5793 5796 5797 5799 5801 5802 5803 5804 5806 5807 5808 5809 5810 5811 5812 5812 5812 5812 5812 5812 5812 5812 5811 5810 5809 5808 5806 5805 5803 5801 5799 5797 5795 5793 5791 5788 5786 5783 5781 5779 5776 5774 5772 5770
5785 5787 5789 5791 5792 5793 5795 5796 5798 5799 5799 5800 5801 5802 5803 5803 5803 5803 5803 5803 5803 5802 5801 5800 5799 5798 5797 5795 5794 5792 5790 5789 5787 5785 5782 5780 5777 5775 5773 5770 5768 5766 5764 5761
5777 5779 5781 5782 5784 5785 5787 5788 5789 5790 5791 5792 5793 5793 5794 5794 5794 5794 5794 5794 5793 5792 5792 5790 5789 5788 5787 5786 5784 5783 5781 5780 5778 5776 5774 5771 5769 5767 5765 5762 5760 5758 5756 5753